This is the latest recevied weather packets stored in our database for station/object KF6FPU-15. If no packets are shown the sender has not sent any weather packets the latest 10 day(s).
| Time | Temp. | Humidity | Pressure | Rain* | Wind** | Luminosity | Snow |
|---|---|---|---|---|---|---|---|
| 1788151382 | 31.11° C | 19% | 1010.4 hPa | - | - | - | - |
| 1788150782 | 31.67° C | 19% | 1010.4 hPa | - | - | - | - |
| 1788150182 | 31.11° C | 18% | 1010.3 hPa | - | - | - | - |
| 1788149582 | 30.56° C | 18% | 1010.3 hPa | - | - | - | - |
| 1788148982 | 31.11° C | 18% | 1010.2 hPa | - | - | - | - |
| 1788148382 | 31.11° C | 18% | 1010.1 hPa | - | - | - | - |
| 1788147782 | 31.11° C | 18% | 1010.1 hPa | - | - | - | - |
| 1788147182 | 31.11° C | 18% | 1009.9 hPa | - | - | - | - |
| 1788145982 | 31.67° C | 18% | 1009.7 hPa | - | - | - | - |
| 1788145382 | 31.11° C | 18% | 1009.6 hPa | - | - | - | - |
| 1788144782 | 31.67° C | 18% | 1009.5 hPa | - | - | - | - |
| 1788144182 | 31.11° C | 18% | 1009.5 hPa | - | - | - | - |
| 1788143582 | 31.11° C | 18% | 1009.5 hPa | - | - | - | - |
| 1788142982 | 31.11° C | 18% | 1009.5 hPa | - | - | - | - |
| 1788142382 | 31.11° C | 18% | 1009.5 hPa | - | - | - | - |
| 1788141782 | 31.67° C | 18% | 1009.5 hPa | - | - | - | - |
| 1788141182 | 32.22° C | 18% | 1009.5 hPa | - | - | - | - |
| 1788140582 | 32.22° C | 18% | 1009.5 hPa | - | - | - | - |
| 1788139382 | 32.22° C | 18% | 1009.5 hPa | - | - | - | - |
| 1788138782 | 32.22° C | 18% | 1009.6 hPa | - | - | - | - |
| 1788138182 | 32.78° C | 18% | 1009.6 hPa | - | - | - | - |
| 1788137582 | 32.22° C | 18% | 1009.7 hPa | - | - | - | - |
| 1788136982 | 32.78° C | 18% | 1009.8 hPa | - | - | - | - |
| 1788136382 | 33.89° C | 18% | 1009.8 hPa | - | - | - | - |
| 1788135782 | 33.33° C | 18% | 1009.8 hPa | - | - | - | - |
* Rain since midnight (hover to see other rain measurements)
** Current wind speed in m/s (hover to see current wind gust speed)